Regional Weather Roundup
Issued by NWS

Home | Current Version | Previous Version | Text Only | Print | Product List | Glossary On
Versions: 1 2 3 4 5 6 7 8 9 10 11 12 13 14 15 16 17 18 19 20 21 22 23 24 25 26 27 28 29 30 31 32 33 34 35 36 37 38 39 40 41 42 43 44 45 46 47 48 49 50
533
ASUS45 KBOU 251507
RWRCO

WEATHER ROUNDUP FOR COLORADO
NATIONAL WEATHER SERVICE DENVER/BOULDER CO
900 AM MDT MON SEP 25 2017

NOTE: "FAIR" INDICATES FEW OR NO CLOUDS BELOW 12000 FEET WITH NO
SIGNIFICANT WEATHER AND/OR OBSTRUCTIONS TO VISIBILITY.

COZ001>005-013-030-031-251600-
...NORTHWEST COLORADO...

CITY           SKY/WX    TMP DP  RH WIND       PRES   REMARKS
CRAIG          CLOUDY    35  31  85 CALM      30.15S
HAYDEN         CLOUDY    35  30  82 E6        30.16  WCI  30
MEEKER         FAIR      34  30  85 CALM      30.15R
RABBIT EARS PA FAIR      28  21  74 SW3       30.17R
STEAMBOAT SPGS CLOUDY    32  30  93 CALM      30.14S
WALDEN         FAIR      32  27  80 SE5       30.14S WCI  27
$$

COZ006>008-011-251600-
...WEST CENTRAL VALLEYS...

CITY           SKY/WX    TMP DP  RH WIND       PRES   REMARKS
GRAND JUNCTION FAIR      44  33  65 S3        30.10R
MONTROSE       FAIR      42  28  57 SE6       30.14R
EAGLE          FAIR      32  25  75 CALM      30.17S
RIFLE          FAIR      39  31  72 CALM      30.13R
DELTA          NOT AVBL
NUCLA          FAIR      39  27  60 CALM      30.15R
$$

COZ017>023-064>068-251600-
...SOUTHWEST COLORADO...

CITY           SKY/WX    TMP DP  RH WIND       PRES   REMARKS
DURANGO        FAIR      38  19  46 CALM      30.09R
CORTEZ         FAIR      39  24  55 NE6       30.08F
PAGOSA SPRINGS FAIR      42  22  45 CALM      30.11R
TELLURIDE      FAIR      33  13  43 CALM      30.16S
WOLF CREEK PAS FAIR      30  12  47 S12G17    30.25S WCI  21
$$

COZ009-010-012-014-032>034-037-058>063-251600-
...CENTRAL COLORADO...

CITY           SKY/WX    TMP DP  RH WIND       PRES   REMARKS
ASPEN          FAIR      35  23  61 SE3       30.12S
BUENA VISTA    PTSUNNY   39  25  56 NW5       30.12S
COPPER MTN     FAIR      36  12  38 E3        30.20R
BERTHOUD PASS  FAIR      21  12  68 S10       30.21R WCI  10
COTTONWOOD PAS FAIR      41  30  65 NE3       30.16S
GUNNISON       FAIR      29  17  61 CALM      30.16R
KREMMLING      FAIR      36  30  80 CALM      30.16S
LEADVILLE      FAIR      31  18  58 CALM      30.14S
MONARCH PASS   FAIR      32  18  55 S7        30.31R WCI  26
SALIDA         CLOUDY    44  30  58 NW6       30.19R
SUNLIGHT       FAIR      28  14  54 CALM      30.22R
WILKERSON PASS FOG       30  30 100 S5        30.23R VSB 1/2 WCI  25
$$

COZ069>075-251600-
...SAN LUIS VALLEY/SANGRE DE CRISTO MOUNTAINS...

CITY           SKY/WX    TMP DP  RH WIND       PRES   REMARKS
ALAMOSA        FAIR      41  27  57 CALM      30.08R
DEL NORTE      FAIR      42  25  50 W8        30.10R
LA VETA PASS   SNOW      39  37  93 NE10      30.29R VSB 1/4
SAGUACHE       FAIR      43  21  42 NW14      30.10R
$$

COZ035-036-038>040-251600-
...NORTHERN COLORADO FRONT RANGE...

CITY           SKY/WX    TMP DP  RH WIND       PRES   REMARKS
DENVER INTL AP FOG       45  43  93 N9        30.11R VSB 3/4
DMNS CITY PARK   N/A     43  42  95 E6G13     30.13R
AURORA         CLOUDY    43  43 100 NW8       30.12R
FRONT RANGE AP CLOUDY    46  45  93 N6        30.12R FOG
ERIE MUNI ARPT CLOUDY    44  42  93 N5        30.18R
BOULDER MUN AP CLOUDY    43  41  93 NE5       30.12R
CENTENNIAL     CLOUDY    43  41  93 N8        30.12R
BROOMFIELD     CLOUDY    43  41  93 NE6       30.12R
FORT COLLINS   CLOUDY    46  41  82 NE8       30.12R
LONGMONT       CLOUDY    47  43  86 NE6       30.14R
$$

COZ041-046-047-076>085-087-088-251600-
...PIKES PEAK/PALMER DIVIDE AND SOUTHERN FOOTHILLS...

CITY           SKY/WX    TMP DP  RH WIND       PRES   REMARKS
COLO. SPRINGS  PTSUNNY   49  39  68 NW15      30.12R
A. F. ACADEMY  CLOUDY    45  40  82 N8        30.12R
SCHRIEVER AFB  PTSUNNY   48  40  75 N10       30.10R
CHEYENNE MTN   CLOUDY    43  39  86 NW12      30.06R
ELLICOTT       FAIR     N/A N/A N/A NE14      30.08R
FALCON         PTSUNNY   47  40  77 N12       30.12R
FORT CARSON    CLOUDY    49  41  73 N15       30.08R
LIMON            N/A    N/A N/A N/A MISG      30.09R
MONUMENT HILL  CLOUDY    39  37  93 NE8       30.14R FOG
CANON CITY     NOT AVBL
WALSENBURG     NOT AVBL
TRINIDAD       CLOUDY    48  47  96 NE13      30.08R FOG
$$

COZ042>045-048>051-090-091-251600-
...NORTHEAST COLORADO...

CITY           SKY/WX    TMP DP  RH WIND       PRES   REMARKS
GREELEY ARPT   CLOUDY    46  42  86 NE7       30.12S
AKRON          CLOUDY    44  42  93 NE14      30.08F FOG
BURLINGTON     CLOUDY    48  46  93 N15       30.06R
WRAY           CLOUDY    48  46  93 N12G17    30.09R
YUMA           CLOUDY    43  43 100 N13       30.08R
STERLING       CLOUDY    45  43  93 NE7       30.09F
HOLYOKE        CLOUDY    48  45  87 N10       30.09S
FORT MORGAN    CLOUDY    44  42  93 NE9       30.12R
$$

COZ086-089-092>099-251600-
...SOUTHEAST COLORADO...

CITY           SKY/WX    TMP DP  RH WIND       PRES   REMARKS
PUEBLO         CLOUDY    54  45  71 N12       30.07R
LA JUNTA       CLOUDY    53  50  89 NE12      30.05R
LAMAR          CLOUDY    53  50  89 NE13      30.01S
SPRINGFIELD      N/A     52  52 100 N12       30.00F
$$




USA.gov is the U.S. government's official web portal to all federal, state and local government web resources and services.